This is the latest recevied weather packets stored in our database for station/object SQ5JP-4. If no packets are shown the sender has not sent any weather packets the latest 10 day(s).
| Time | Temp. | Humidity | Pressure | Rain* | Wind** | Luminosity | Snow |
|---|---|---|---|---|---|---|---|
| 1777273178 | 7.78° C | 49% | 1003.8 hPa | - | - | - | - |
| 1777272278 | 6.67° C | 49% | 1003.8 hPa | - | - | - | - |
| 1777271378 | 6.11° C | 50% | 1004 hPa | - | - | - | - |
| 1777270478 | 5.56° C | 54% | 1004 hPa | - | - | - | - |
| 1777269578 | 5° C | 58% | 1004.2 hPa | - | - | - | - |
| 1777268678 | 3.89° C | 62% | 1004.2 hPa | - | - | - | - |
| 1777267778 | 3.33° C | 75% | 1004.3 hPa | - | - | - | - |
| 1777266877 | 2.22° C | 85% | 1004.4 hPa | - | - | - | - |
| 1777265978 | 1.11° C | 97% | 1004.6 hPa | - | - | - | - |
| 1777265077 | 0.56° C | 100% | 1004.6 hPa | - | - | - | - |
| 1777264177 | -1.11° C | 100% | 1004.5 hPa | - | - | - | - |
| 1777263277 | -1.67° C | 100% | 1004.4 hPa | - | - | - | - |
| 1777262377 | -1.67° C | 100% | 1004.4 hPa | - | - | - | - |
| 1777261477 | -2.22° C | 100% | 1004.3 hPa | - | - | - | - |
| 1777260577 | -2.22° C | 100% | 1004.3 hPa | - | - | - | - |
| 1777259677 | -1.67° C | 100% | 1004.3 hPa | - | - | - | - |
| 1777258777 | -1.11° C | 100% | 1004.4 hPa | - | - | - | - |
| 1777257877 | -1.11° C | 100% | 1004.6 hPa | - | - | - | - |
| 1777256976 | -1.11° C | 100% | 1004.4 hPa | - | - | - | - |
| 1777255178 | -1.67° C | 100% | 1004.5 hPa | - | - | - | - |
| 1777254278 | -2.22° C | 100% | 1004.4 hPa | - | - | - | - |
| 1777253378 | -2.78° C | 100% | 1004.5 hPa | - | - | - | - |
| 1777252478 | -3.33° C | 100% | 1004.5 hPa | - | - | - | - |
| 1777251578 | -3.33° C | 100% | 1004.6 hPa | - | - | - | - |
| 1777250678 | -2.78° C | 100% | 1004.8 hPa | - | - | - | - |
* Rain since midnight (hover to see other rain measurements)
** Current wind speed in m/s (hover to see current wind gust speed)